OpenBCM V1.08-5-g2f4a (Linux)

Packet Radio Mailbox

IZ3LSV

[San Dona' di P. JN]

 Login: GUEST





  
CX2SA  > KEPS     13.05.22 01:47l 596 Lines 29123 Bytes #999 (0) @ WW
BID : ORB22132.N
Read: GUEST
Subj: 2Line Orbital Elements 22132.AMSAT
Path: IZ3LSV<DB0ERF<DK0WUE<PE1RRR<KA1VSC<GB7CIP<CX2SA
Sent: 220513/0027Z @:CX2SA.SAL.URY.SOAM #:10633 [Salto] FBB7.00e $:ORB22132.N
From: CX2SA@CX2SA.SAL.URY.SOAM
To  : KEPS@AMSAT


HR AMSAT ORBITAL ELEMENTS FOR AMATEUR SATELLITES IN NASA FORMAT
FROM WA5QGD FORT WORTH,TX May 12, 2022
BID: ORB22132.N

DECODE 2-LINE ELSETS WITH THE FOLLOWING KEY:
1 AAAAAU 00  0  0 BBBBB.BBBBBBBB  .CCCCCCCC  00000-0  00000-0 0  DDDZ
2 AAAAA EEE.EEEE FFF.FFFF GGGGGGG HHH.HHHH III.IIII JJ.JJJJJJJJKKKKKZ
KEY: A-CATALOGNUM B-EPOCHTIME C-DECAY D-ELSETNUM E-INCLINATION F-RAAN
G-ECCENTRICITY H-ARGPERIGEE I-MNANOM J-MNMOTION K-ORBITNUM Z-CHECKSUM

TO ALL RADIO AMATEURS BT

AO-07
1 07530U 74089B   22132.76238722 -.00000034  00000-0  72540-4 0  9990
2 07530 101.9027 112.5226 0012594 109.4518  13.6224 12.53654756173233
UO-11
1 14781U 84021B   22131.96473612  .00000682  00000-0  88725-4 0  9993
2 14781  97.6163 121.0670 0010037  83.1655 277.0702 14.83605565 55638
LO-19
1 20442U 90005G   22132.63213359  .00000106  00000-0  55483-4 0  9994
2 20442  98.7912  96.9522 0010593 274.9095  85.0879 14.33051792688034
HUBBLE
1 20580U 90037B   22132.50155035  .00002290  00000-0  12501-3 0  9993
2 20580  28.4707  47.0006 0002669  11.0052 162.2544 15.10415710561049
MET-2/21
1 22782U 93055A   22132.21306244  .00000041  00000-0  23687-4 0  9990
2 22782  82.5523  43.0002 0023670  89.1343  20.3893 13.83851755449269
AO-27
1 22825U 93061C   22132.62440096  .00000076  00000-0  47345-4 0  9999
2 22825  98.8900 162.8990 0009012 149.8929 210.2772 14.30165410493309
IO-26
1 22826U 93061D   22132.65625531  .00000088  00000-0  51368-4 0  9995
2 22826  98.8844 162.8131 0009758 137.8777 222.3156 14.30509985493544
FO-29
1 24278U 96046B   22131.31416092 -.00000027  00000-0  78639-5 0  9991
2 24278  98.5196 160.1028 0350641  19.8504 341.5898 13.53114554270589
NOAA-15
1 25338U 98030A   22132.70866438  .00000173  00000-0  90499-4 0  9999
2 25338  98.6470 162.7064 0011155  47.2207 312.9909 14.26121634248173
GO-32
1 25397U 98043D   22132.58774411  .00000039  00000-0  36620-4 0  9990
2 25397  98.8152  82.9663 0001114 156.2147 203.9083 14.23749888238549
ISS
1 25544U 98067A   22132.54238162  .00007330  00000-0  13605-3 0  9992
2 25544  51.6432 153.1122 0006817  89.6534  11.1576 15.50041161339656
NO-44
1 26931U 01043C   22132.17045692  .00000082  00000-0  63092-4 0  9997
2 26931  67.0493 152.0498 0007971 268.6922  91.3266 14.30693791 76373
SO-50
1 27607U 02058C   22132.48195182  .00000709  00000-0  11825-3 0  9991
2 27607  64.5561  51.9745 0076376 301.5144  57.8512 14.76072427 43273
CO-55
1 27844U 03031E   22132.55244683  .00000240  00000-0  12748-3 0  9990
2 27844  98.6795 140.7801 0009385 199.1574 160.9252 14.22431971978804
CO-57
1 27848U 03031J   22132.01173190  .00000176  00000-0  99521-4 0  9992
2 27848  98.6843 140.7744 0008981 215.8305 144.2271 14.21991186978531
RS-22
1 27939U 03042A   22132.66541697  .00000667  00000-0  12690-3 0  9993
2 27939  98.1852 273.4064 0011943 325.1122  34.9300 14.67298582995795
NOAA-18
1 28654U 05018A   22132.65258667  .00000122  00000-0  89983-4 0  9990
2 28654  98.9502 203.1145 0015283  74.8994 285.3867 14.12726022875013
CO-58
1 28895U 05043F   22131.82433053  .00000725  00000-0  14642-3 0  9995
2 28895  98.1009 263.7802 0015399 255.1087 104.8411 14.64265268882050
Falconsat-3
1 30776U 07006E   22132.69353479  .00034273  00000-0  57551-3 0  9997
2 30776  35.4306 134.1203 0001714 210.3606 149.7026 15.50778912844023
CO-65
1 32785U 08021C   22132.69223253  .00001828  00000-0  19760-3 0  9993
2 32785  97.6550 104.6832 0012688   0.5845 359.5385 14.89437220761237
AAUSAT2
1 32788U 08021F   22132.68502396  .00004027  00000-0  35317-3 0  9993
2 32788  97.5308 119.2783 0009858 239.1086 120.9167 14.97139669763188
DO-64
1 32789U 08021G   22132.64605542  .00011937  00000-0  68128-3 0  9991
2 32789  97.3419 160.2566 0012818  91.7782 268.4917 15.12819633766616
CO-66
1 32791U 08021J   22132.17434500  .00002316  00000-0  23099-3 0  9995
2 32791  97.6091 109.7170 0011510 317.8063  42.2270 14.92445834761866
RS-30
1 32953U 08025A   22132.72490654  .00000021  00000-0  80971-4 0  9996
2 32953  82.5062 206.1435 0018502 342.0017  18.0403 12.43109674633893
PRISM
1 33493U 09002B   22131.91425446  .00004629  00000-0  38234-3 0  9991
2 33493  98.2325 116.4092 0011318 287.8679  72.1308 14.99463761723505
NOAA-19
1 33591U 09005A   22132.64972604  .00000173  00000-0  11867-3 0  9990
2 33591  99.1511 166.0287 0012874 289.8029  70.1753 14.12561197683398
SRMSAT
1 37841U 11058D   22132.19756705  .00000375  00000-0  60763-4 0  9999
2 37841  19.9711 114.0663 0011677 306.2660 153.9843 14.10747286546333
HRBE
1 37855U 11061F   22132.17272642  .00014216  00000-0  63300-3 0  9997
2 37855 101.7041 232.1080 0156796 171.1748 189.2283 15.11267795576222
RS-40
1 38735U 12041C   22132.18260780  .00000009  00000-0 -68113-5 0  9990
2 38735  82.4719 288.1077 0018092  90.2248 270.0900 12.42585245444016
ZACUBE-1
1 39417U 13066B   22132.18431352  .00001448  00000-0  18281-3 0  9997
2 39417  97.6342 105.3300 0058373 161.9568 198.3735 14.82186542457756
Delfi-N3xt
1 39428U 13066N   22132.56462906  .00003367  00000-0  52409-3 0  9992
2 39428  97.8130  68.4729 0119040  33.3141 327.5484 14.68940653453441
GOMX-1
1 39430U 13066Q   22132.68312943  .00000800  00000-0  15102-3 0  9991
2 39430  97.8112  41.9241 0149946 157.1801 203.6161 14.60079109451079
LO-74
1 39440U 13066AA  22132.68429196  .00001237  00000-0  17488-3 0  9995
2 39440  97.7236  91.7549 0077327 247.1670 112.1361 14.76894874456204
AO-73
1 39444U 13066AE  22132.49696752  .00001822  00000-0  22285-3 0  9993
2 39444  97.6224 108.0294 0057632 149.4461 211.0132 14.83232848456785
SPROUT
1 39770U 14029E   22132.73935020  .00004856  00000-0  50351-3 0  9991
2 39770  97.9357 249.4766 0008466 197.6219 162.4713 14.90444602432349
DTUSAT-2
1 40030U 14033W   22132.58084995  .00001894  00000-0  20325-3 0  9993
2 40030  97.9364  65.2116 0011934 164.2731 195.8859 14.89780185428819
EO-80
1 40032U 14033Y   22132.08217486  .00001699  00000-0  18304-3 0  9990
2 40032  97.9370  64.7241 0011783 166.7461 193.4068 14.89746497428724
HODOYOSHI-1
1 40299U 14070B   22132.69976763  .00004420  00000-0  17169-3 0  9996
2 40299  97.2442 201.8844 0010741 262.5732 254.3892 15.26528843417606
FIREBIRD FU3
1 40377U 15003B   22132.17960591  .00016610  00000-0  51380-3 0  9992
2 40377  99.1066 349.0355 0104406 147.6555 213.1138 15.28335718402885
FIREBIRD FU4
1 40378U 15003C   22131.55273960  .00015275  00000-0  47189-3 0  9999
2 40378  99.1071 348.4717 0104372 149.4565 211.2804 15.28403913402781
GRIFEX
1 40379U 15003D   22132.50820902  .00012467  00000-0  45086-3 0  9994
2 40379  99.1164 335.9413 0118004 187.2172 172.7366 15.22217599402163
XW-2A
1 40903U 15049E   22132.69805939  .00018470  00000-0  30940-3 0  9993
2 40903  97.1821 191.2116 0008597 244.1635 214.8834 15.51862041373715
XW-2C
1 40906U 15049H   22132.69843516  .00004778  00000-0  23329-3 0  9998
2 40906  97.4940 136.4077 0015689 120.0863   1.0138 15.18643729367499
XW-2D
1 40907U 15049J   22132.66862221  .00005688  00000-0  27249-3 0  9996
2 40907  97.4932 136.3306 0015185 116.1409 355.4498 15.19230172367533
LILACSAT-2
1 40908U 15049K   22132.70839484  .00002659  00000-0  14334-3 0  9993
2 40908  97.5169 133.6528 0016616 136.1268 312.4343 15.15547996367070
XW-2E
1 40909U 15049L   22132.73748525  .00008775  00000-0  37757-3 0  9991
2 40909  97.4661 140.8492 0014524 100.1593  17.8512 15.22769177367973
XW-2F
1 40910U 15049M   22132.71837948  .00008644  00000-0  37760-3 0  9998
2 40910  97.4737 139.9560 0015373 100.3761  16.1424 15.22247104367746
XW-2B
1 40911U 15049N   22132.69345141  .00005471  00000-0  26307-3 0  9995
2 40911  97.4921 136.9683 0015064 117.2146   6.9170 15.19122688367421
DCBB
1 40912U 15049P   22132.72272704  .00010161  00000-0  40582-3 0  9997
2 40912  97.4391 144.3131 0015113  72.1566  16.4561 15.25230893368307
TW-1A
1 40928U 15051D   22132.72368171  .00034057  00000-0  47549-3 0  9991
2 40928  97.0432 155.7541 0010093 146.4575 325.0863 15.56745271372678
IO-86
1 40931U 15052B   22132.59017780  .00000784  00000-0  19940-4 0  9993
2 40931   5.9935  64.8511 0012888  19.1927 340.8728 14.76790452358037
ATHENOXAT-1
1 41168U 15077C   22132.80083389  .00012892  00000-0  54579-3 0  9994
2 41168  14.9861 354.5274 0009454  96.0665 344.1445 15.19986700354873
ChubuSat-2
1 41338U 16012B   22132.69640781  .00002037  00000-0  14813-3 0  9992
2 41338  31.0025 251.5496 0013390 157.8123 202.3094 15.01228508342109
ChubuSat-3
1 41339U 16012C   22132.69120651  .00001867  00000-0  13491-3 0  9993
2 41339  31.0114 248.5322 0013102 165.7358 194.3650 15.01320048342102
Horyu-4
1 41340U 16012D   22132.64786623  .00003381  00000-0  23823-3 0  9990
2 41340  31.0041 227.7582 0013415 203.8386 156.1630 15.03064881342333
e-st@r-II
1 41459U 16025D   22132.71363442  .00009349  00000-0  41142-3 0  9997
2 41459  98.1827 295.2458 0147326  31.0948 329.8897 15.12777488332096
AAUSAT4
1 41460U 16025E   22132.43653502  .00013757  00000-0  54407-3 0  9993
2 41460  98.1780 300.8349 0128512   9.1800 351.1710 15.18203897332475
LO-87
1 41557U 16033B   22132.77276381  .00011992  00000-0  36915-3 0  9995
2 41557  97.3850 230.4367 0012659 141.6881 318.6862 15.33718594331910
NuSat2
1 41558U 16033C   22132.78045231  .00011264  00000-0  32592-3 0  9994
2 41558  97.4042 235.9474 0011921 131.9120 329.8259 15.35701551332173
Lapan A3
1 41603U 16040E   22132.76945575  .00001210  00000-0  58199-4 0  9993
2 41603  97.2097 171.3468 0011441 288.9314 161.9877 15.20557314326616
Pratham
1 41783U 16059A   22132.11863541  .00000380  00000-0  82018-4 0  9997
2 41783  97.9168 175.1226 0032026 289.4844  70.2900 14.63318945300310
